GW1438 Weather Reports


time (UTC)temp
F
wind
direction
speed
knots
gust
knots
rain 1hr
in
rain 24hr
in
rain mn
in
humidity
%
barometer
mb
20260506103201 64 122 0.0 0.9 0.00 0.00 0.00 73 1011.1
20260506102659 64 282 0.0 0.9 0.00 0.00 0.00 73 1010.9
20260506102156 65 164 0.9 0.9 0.00 0.00 0.00 73 1010.8
20260506101653 65 140 0.9 0.9 0.00 0.00 0.00 73 1011.2
20260506101150 65 56 2.6 4.3 0.00 0.00 0.00 72 1011.2
20260506100648 65 127 0.0 0.9 0.00 0.00 0.00 72 1011.3
20260506100146 65 191 0.9 0.9 0.00 0.00 0.00 72 1011.1
20260506095644 65 198 0.9 0.9 0.00 0.00 0.00 71 1011.0
20260506095140 65 207 0.9 0.9 0.00 0.00 0.00 72 1010.9
20260506094638 65 21 0.9 1.7 0.00 0.00 0.00 72 1011.2
20260506094136 65 229 0.9 0.9 0.00 0.00 0.00 71 1011.1
20260506093634 65 337 0.9 1.7 0.00 0.00 0.00 71 1011.1
20260506093131 65 352 0.9 0.9 0.00 0.00 0.00 71 1011.2
20260506092629 65 133 1.7 2.6 0.00 0.00 0.00 71 1011.2
20260506092125 65 191 0.9 0.9 0.00 0.00 0.00 70 1010.9
20260506091623 65 238 0.9 0.9 0.00 0.00 0.00 71 1011.2
20260506091121 65 133 0.9 1.7 0.00 0.00 0.00 71 1011.3
20260506090619 65 131 1.7 5.2 0.00 0.00 0.00 70 1011.1
20260506090115 65 55 0.9 0.9 0.00 0.00 0.00 70 1011.1
20260506085612 65 286 0.9 0.9 0.00 0.00 0.00 71 1011.1
20260506085108 65 201 0.0 0.9 0.00 0.00 0.00 70 1011.1
20260506084605 65 2 0.9 1.7 0.00 0.00 0.00 70 1011.5
20260506084101 66 259 0.9 0.9 0.00 0.00 0.00 69 1011.3
20260506083558 66 149 0.9 1.7 0.00 0.00 0.00 69 1011.4
20260506083056 66 272 0.0 0.9 0.00 0.00 0.00 69 1011.5
20260506082552 66 178 1.7 1.7 0.00 0.00 0.00 68 1011.4
20260506082048 66 259 0.9 0.9 0.00 0.00 0.00 68 1011.3
20260506081546 66 215 0.0 0.9 0.00 0.00 0.00 67 1011.4
20260506081043 66 193 0.9 0.9 0.00 0.00 0.00 67 1011.3
20260506080541 67 202 0.9 1.7 0.00 0.00 0.00 67 1011.4
20260506073525 68 231 0.0 0.9 0.00 0.00 0.00 63 1011.3
20260506073022 68 120 0.9 0.9 0.00 0.00 0.00 62 1011.1
20260506072519 68 350 1.7 2.6 0.00 0.00 0.00 62 1011.2
20260506072016 68 205 0.9 1.7 0.00 0.00 0.00 62 1011.0
20260506071514 68 212 0.0 0.0 0.00 0.00 0.00 61 1011.5
20260506071011 68 150 1.7 4.3 0.00 0.00 0.00 61 1011.3
20260506070508 68 162 3.5 7.0 0.00 0.00 0.00 61 1011.5
20260506062446 69 186 1.7 1.7 0.00 0.00 0.00 58 1012.0
20260506061942 70 230 0.9 0.9 0.00 0.00 0.00 58 1012.0
20260506061438 70 166 0.0 0.9 0.00 0.00 0.00 58 1011.8
20260506060936 70 317 0.9 0.9 0.00 0.00 0.00 58 1011.7
20260506060434 70 114 0.9 1.7 0.00 0.00 0.00 58 1011.8
20260506051406 70 267 1.7 1.7 0.00 0.00 0.00 56 1012.5
20260506050903 70 166 0.9 0.9 0.00 0.00 0.00 56 1012.2
20260506050401 71 328 0.9 0.9 0.00 0.00 0.00 55 1012.4
20260506044851 71 176 0.9 1.7 0.00 0.00 0.00 55 1012.6
20260506044349 71 230 1.7 2.6 0.00 0.00 0.00 55 1012.3
20260506043846 71 7 0.9 1.7 0.00 0.00 0.00 54 1012.3
20260506043343 71 182 2.6 2.6 0.00 0.00 0.00 54 1012.3
20260506042841 71 6 2.6 2.6 0.00 0.00 0.00 54 1012.2
20260506042340 71 210 0.9 0.9 0.00 0.00 0.00 54 1012.4
20260506041838 71 111 1.7 1.7 0.00 0.00 0.00 54 1012.4
20260506041335 71 11 0.9 1.7 0.00 0.00 0.00 53 1012.4
20260506040832 71 44 0.9 1.7 0.00 0.00 0.00 53 1012.5
20260506040330 71 200 1.7 2.6 0.00 0.00 0.00 53 1012.3
20260506035825 71 342 1.7 1.7 0.00 0.00 0.00 53 1012.4
20260506035323 71 53 1.7 1.7 0.00 0.00 0.00 52 1012.4
20260506034820 71 128 1.7 1.7 0.00 0.00 0.00 52 1012.4
20260506034317 71 160 0.9 0.9 0.00 0.00 0.00 52 1012.1
20260506033814 71 115 2.6 2.6 0.00 0.00 0.00 52 1012.2
20260506033311 71 212 0.9 1.7 0.00 0.00 0.00 51 1012.3
20260506032808 71 177 0.9 0.9 0.00 0.00 0.00 50 1012.3
20260506032306 71 193 1.7 1.7 0.00 0.00 0.00 50 1012.5
20260506031801 71 237 0.9 0.9 0.00 0.00 0.00 50 1012.2
20260506031259 71 288 0.9 1.7 0.00 0.00 0.00 50 1012.3
20260506030757 71 59 0.9 1.7 0.00 0.00 0.00 49 1012.2
20260506030254 72 171 0.9 1.7 0.00 0.00 0.00 48 1012.2
20260506025751 72 347 0.9 0.9 0.00 0.00 0.00 48 1012.1
20260506025247 72 222 0.0 0.0 0.00 0.00 0.00 48 1012.2
20260506024744 72 193 0.9 0.9 0.00 0.00 0.00 47 1012.1
20260506024241 72 124 1.7 5.2 0.00 0.00 0.00 46 1012.3
20260506023737 73 218 0.0 0.0 0.00 0.00 0.00 46 1012.3
20260506023234 73 14 0.9 0.9 0.00 0.00 0.00 45 1012.3
20260506022731 73 112 2.6 4.3 0.00 0.00 0.00 45 1012.2
20260506022229 73 204 0.9 1.7 0.00 0.00 0.00 44 1012.5
20260506021727 73 135 2.6 4.3 0.00 0.00 0.00 43 1012.5
20260506021224 73 265 0.9 0.9 0.00 0.00 0.00 43 1012.5
20260506020720 73 213 0.9 0.9 0.00 0.00 0.00 42 1012.2
20260506020218 73 177 0.9 1.7 0.00 0.00 0.00 42 1012.3
20260506015715 73 161 0.9 1.7 0.00 0.00 0.00 42 1012.2
20260506015213 73 46 0.0 1.7 0.00 0.00 0.00 41 1012.3
20260506014710 73 266 1.7 1.7 0.00 0.00 0.00 41 1012.2
20260506014206 73 223 1.7 2.6 0.00 0.00 0.00 40 1012.1
20260506013704 73 228 0.0 0.9 0.00 0.00 0.00 41 1012.3
20260506013201 73 303 0.9 0.9 0.00 0.00 0.00 40 1012.2
20260506012657 73 255 0.9 0.9 0.00 0.00 0.00 39 1011.9
20260506012154 74 217 0.0 0.0 0.00 0.00 0.00 39 1011.8
20260506011651 74 171 0.0 0.9 0.00 0.00 0.00 37 1011.7
20260506011147 74 210 0.0 0.9 0.00 0.00 0.00 37 1011.9
20260506010646 75 343 0.9 1.7 0.00 0.00 0.00 37 1011.9
20260506010143 75 45 0.9 0.9 0.00 0.00 0.00 36 1011.8
20260506005639 75 238 0.9 0.9 0.00 0.00 0.00 37 1011.7
20260506005136 75 194 1.7 2.6 0.00 0.00 0.00 35 1011.6
20260506004632 75 155 0.9 1.7 0.00 0.00 0.00 34 1011.5
20260506004130 75 170 2.6 4.3 0.00 0.00 0.00 34 1011.5
20260506003626 76 5 0.9 1.7 0.00 0.00 0.00 33 1011.6
20260506003122 75 146 1.7 5.2 0.00 0.00 0.00 33 1011.4
20260506002619 76 196 1.7 1.7 0.00 0.00 0.00 33 1011.4
20260506002114 76 202 0.9 0.9 0.00 0.00 0.00 33 1011.5
20260506001611 76 13 0.9 1.7 0.00 0.00 0.00 33 1011.4
20260506001108 76 204 0.9 0.9 0.00 0.00 0.00 33 1011.3
20260506000606 76 215 0.9 0.9 0.00 0.00 0.00 34 1011.1
20260505235601 77 275 0.0 0.9 0.00 0.00 0.00 33 1011.1
20260505235057 77 213 0.9 1.7 0.00 0.00 0.00 33 1011.1
20260505234554 77 123 3.5 5.2 0.00 0.00 0.00 32 1011.0
20260505234051 77 245 0.9 0.9 0.00 0.00 0.00 32 1010.9
20260505233549 77 297 0.9 2.6 0.00 0.00 0.00 32 1010.9
20260505233046 78 332 1.7 1.7 0.00 0.00 0.00 32 1011.1
20260505232543 78 59 1.7 2.6 0.00 0.00 0.00 30 1011.1
20260505232041 78 322 3.5 5.2 0.00 0.00 0.00 31 1011.1
20260505231537 78 295 1.7 2.6 0.00 0.00 0.00 30 1011.0
20260505231036 78 146 2.6 2.6 0.00 0.00 0.00 30 1010.9
20260505230533 79 319 0.9 1.7 0.00 0.00 0.00 30 1011.1
20260505230030 79 322 2.6 2.6 0.00 0.00 0.00 30 1011.1
20260505225526 79 177 1.7 1.7 0.00 0.00 0.00 29 1011.0
20260505225022 78 223 0.0 0.9 0.00 0.00 0.00 30 1011.1
20260505224520 78 55 1.7 1.7 0.00 0.00 0.00 30 1011.0
20260505224017 79 274 0.0 0.9 0.00 0.00 0.00 32 1011.4
20260505223514 79 174 1.7 1.7 0.00 0.00 0.00 31 1011.1
20260505223010 79 357 2.6 4.3 0.00 0.00 0.00 30 1011.3
20260505222507 80 163 0.9 0.9 0.00 0.00 0.00 31 1010.9
20260505222002 80 345 1.7 4.3 0.00 0.00 0.00 31 1011.1
20260505221500 80 281 0.0 0.9 0.00 0.00 0.00 33 1011.0
20260505220957 80 279 2.6 4.3 0.00 0.00 0.00 31 1011.0
20260505220453 81 343 0.9 0.9 0.00 0.00 0.00 31 1011.1
20260505215951 80 40 0.9 1.7 0.00 0.00 0.00 31 1010.9
20260505215449 80 212 0.9 1.7 0.00 0.00 0.00 30 1011.1
20260505214947 80 259 0.9 0.9 0.00 0.00 0.00 32 1011.1
20260505214445 80 201 0.9 0.9 0.00 0.00 0.00 32 1010.9
20260505213941 80 226 0.9 0.9 0.00 0.00 0.00 31 1011.0
20260505213439 81 31 0.9 0.9 0.00 0.00 0.00 31 1011.0
20260505212935 80 169 0.0 0.9 0.00 0.00 0.00 32 1011.0
20260505212432 80 350 1.7 4.3 0.00 0.00 0.00 31 1011.0
20260505211928 81 289 0.9 1.7 0.00 0.00 0.00 32 1010.9
20260505211426 82 228 0.9 1.7 0.00 0.00 0.00 32 1010.8
20260505210922 81 148 2.6 4.3 0.00 0.00 0.00 32 1010.9
20260505210420 81 317 1.7 1.7 0.00 0.00 0.00 32 1011.0
20260505205916 81 330 1.7 2.6 0.00 0.00 0.00 31 1010.7
20260505205415 82 286 2.6 4.3 0.00 0.00 0.00 32 1011.0
20260505204911 82 213 2.6 2.6 0.00 0.00 0.00 33 1011.0
20260505204409 81 109 2.6 5.2 0.00 0.00 0.00 30 1011.1
20260505203906 82 268 0.9 0.9 0.00 0.00 0.00 31 1010.6
20260505203402 82 174 0.9 0.9 0.00 0.00 0.00 32 1010.9
20260505202859 83 163 4.3 7.0 0.00 0.00 0.00 28 1010.8
20260505202355 82 13 1.7 1.7 0.00 0.00 0.00 29 1010.8
20260505201852 83 47 2.6 4.3 0.00 0.00 0.00 29 1011.0
20260505201349 84 23 1.7 1.7 0.00 0.00 0.00 29 1010.9
20260505200847 83 210 0.9 1.7 0.00 0.00 0.00 31 1010.8
20260505200344 83 30 0.9 0.9 0.00 0.00 0.00 30 1010.8
20260505195839 83 190 0.9 1.7 0.00 0.00 0.00 29 1011.0
20260505195337 83 157 1.7 2.6 0.00 0.00 0.00 27 1010.8
20260505194834 83 82 2.6 5.2 0.00 0.00 0.00 29 1011.1
20260505194331 83 268 1.7 2.6 0.00 0.00 0.00 31 1011.1
20260505193826 82 355 3.5 5.2 0.00 0.00 0.00 30 1011.3
20260505193324 83 81 1.7 1.7 0.00 0.00 0.00 30 1011.2
20260505192822 82 304 1.7 1.7 0.00 0.00 0.00 30 1011.3
20260505192320 82 201 0.9 1.7 0.00 0.00 0.00 30 1011.2
20260505191817 82 81 3.5 7.0 0.00 0.00 0.00 29 1011.5
20260505191316 82 349 3.5 5.2 0.00 0.00 0.00 31 1011.5
20260505190812 83 342 1.7 4.3 0.00 0.00 0.00 29 1011.5
20260505190308 82 17 2.6 2.6 0.00 0.00 0.00 30 1011.4
20260505185804 82 76 0.9 0.9 0.00 0.00 0.00 30 1011.6
20260505185300 83 14 2.6 4.3 0.00 0.00 0.00 30 1011.9
20260505184756 83 231 0.9 0.9 0.00 0.00 0.00 34 1012.1
20260505184254 82 306 4.3 6.1 0.00 0.00 0.00 32 1011.7
20260505183751 83 147 2.6 2.6 0.00 0.00 0.00 31 1011.9
20260505183248 83 217 1.7 2.6 0.00 0.00 0.00 33 1011.8
20260505182744 83 39 2.6 4.3 0.00 0.00 0.00 32 1012.1
20260505182241 84 331 2.6 2.6 0.00 0.00 0.00 32 1012.2
20260505181737 83 115 2.6 4.3 0.00 0.00 0.00 31 1012.3
20260505181235 83 230 0.9 0.9 0.00 0.00 0.00 33 1012.4
20260505180731 82 18 1.7 1.7 0.00 0.00 0.00 32 1012.2
20260505180228 82 238 1.7 1.7 0.00 0.00 0.00 34 1012.2
20260505175724 83 22 1.7 2.6 0.00 0.00 0.00 33 1012.3
20260505175221 83 322 2.6 2.6 0.00 0.00 0.00 33 1012.4
20260505174712 82 249 0.9 0.9 0.00 0.00 0.00 33 1012.5
20260505174209 82 326 1.7 1.7 0.00 0.00 0.00 33 1012.4
20260505173705 82 173 0.9 0.9 0.00 0.00 0.00 38 1012.4
20260505173202 82 319 1.7 1.7 0.00 0.00 0.00 38 1012.7
20260505172659 81 231 0.9 0.9 0.00 0.00 0.00 39 1012.6
20260505172156 80 194 1.7 1.7 0.00 0.00 0.00 44 1012.8
20260505171655 81 260 0.9 1.7 0.00 0.00 0.00 41 1012.7
20260505171153 81 239 0.9 0.9 0.00 0.00 0.00 40 1013.0
20260505170650 81 217 0.9 1.7 0.00 0.00 0.00 39 1012.9
20260505170146 81 209 0.9 0.9 0.00 0.00 0.00 41 1013.0
20260505165646 81 257 1.7 1.7 0.00 0.00 0.00 40 1013.0
20260505165143 80 221 1.7 1.7 0.00 0.00 0.00 40 1013.1
20260505164638 80 312 0.9 0.9 0.00 0.00 0.00 40 1013.0
20260505164136 81 294 0.0 0.9 0.00 0.00 0.00 39 1013.4
20260505163634 81 87 1.7 1.7 0.00 0.00 0.00 37 1013.4
20260505163132 81 173 0.9 1.7 0.00 0.00 0.00 39 1013.6
20260505162629 80 232 0.0 0.9 0.00 0.00 0.00 40 1013.3
20260505162127 80 151 0.9 0.9 0.00 0.00 0.00 39 1013.7
20260505161623 80 232 1.7 2.6 0.00 0.00 0.00 40 1013.8
20260505161120 79 0 1.7 2.6 0.00 0.00 0.00 41 1013.9
20260505160618 79 231 0.9 1.7 0.00 0.00 0.00 41 1013.6
20260505160115 80 298 1.7 1.7 0.00 0.00 0.00 40 1013.9
20260505153055 78 235 0.9 0.9 0.00 0.00 0.00 43 1013.9
20260505152551 79 346 1.7 4.3 0.00 0.00 0.00 43 1014.0
20260505152047 78 196 0.9 0.9 0.00 0.00 0.00 43 1014.0
20260505151542 77 176 0.9 0.9 0.00 0.00 0.00 43 1013.7
20260505151040 79 300 1.7 1.7 0.00 0.00 0.00 43 1013.8
20260505150536 77 213 0.9 0.9 0.00 0.00 0.00 48 1013.7
20260505140502 73 254 0.9 0.9 0.00 0.00 0.00 49 1013.9
20260505124915 66 181 0.9 0.9 0.00 0.00 0.00 56 1014.3
20260505124412 66 156 0.9 1.7 0.00 0.00 0.00 55 1014.6
20260505123908 66 222 0.0 0.0 0.00 0.00 0.00 56 1014.4
20260505123405 66 187 0.0 0.9 0.00 0.00 0.00 56 1014.4
20260505122900 65 209 0.9 0.9 0.00 0.00 0.00 57 1014.5
20260505122358 64 49 0.9 1.7 0.00 0.00 0.00 57 1014.3
20260505121854 63 234 0.0 0.0 0.00 0.00 0.00 60 1014.3
20260505121352 63 103 0.9 0.9 0.00 0.00 0.00 60 1014.2
20260505120847 62 281 0.9 0.9 0.00 0.00 0.00 60 1014.2
20260505120344 62 274 0.0 0.9 0.00 0.00 0.00 62 1014.2
20260505115843 62 261 0.9 0.9 0.00 0.00 0.00 62 1014.2
20260505115340 61 155 0.9 0.9 0.00 0.00 0.00 61 1014.1
20260505114838 61 122 0.9 0.9 0.00 0.00 0.00 62 1014.1
20260505114334 61 334 0.9 1.7 0.00 0.00 0.00 62 1014.1
20260505113830 60 235 0.0 0.0 0.00 0.00 0.00 63 1013.8
20260505113327 60 231 0.9 0.9 0.00 0.00 0.00 63 1013.9
20260505112823 60 22 0.9 1.7 0.00 0.00 0.00 63 1013.9
20260505112320 60 184 0.9 0.9 0.00 0.00 0.00 63 1013.9
20260505111816 60 228 0.0 0.0 0.00 0.00 0.00 64 1014.0
20260505111312 60 224 0.0 0.0 0.00 0.00 0.00 64 1013.9
20260505110808 59 210 0.0 0.9 0.00 0.00 0.00 65 1013.6
20260505110306 59 293 0.9 0.9 0.00 0.00 0.00 65 1013.8